Das Wetter in  D-61279 Heinzenberg / Taunus





Wetter Minimum- & Maximum-Werte im Oktober 2014

Standort: Heinzenberg / Taunus - Höhe 297 m         8 24' 1" Ost 50 21' 51" Nord
(   3-stündige Aktualisierung    letzte Aktualisierung um 19:04 am 31.10.2014  )


Messgrösse

Minimum

Maximum

Durchschnitt

Temperatur West /
Luftfeuchte West
Anklicken für Monats-Diagramm

3,5 C

06:01
24.10.2014

53 %

17:30
02.10.2014

22,7 C

17:25
02.10.2014

94 %

10:10
13.10.2014

Temp

12,0 C

Feuchte

85 %

Temperatur Ost /
Luftfeuchte Ost
Anklicken für Monats-Diagramm

3,5 C

07:06
24.10.2014

--

--
--

24,1 C

14:36
03.10.2014

--

--
--

12,0 C

--

Luftdruck Anklicken für Monats-Diagramm

1000,1 hPa

17:38
21.10.2014

1030,3 hPa

08:25
02.10.2014

1017,1 hPa

Taupunkt

1,9 C

06:01
24.10.2014

16,4 C

16:56
19.10.2014

9,4 C

Windchill
( gefühlte Temperatur )

-7,4 C

03:34
22.10.2014

22,7 C

17:25
02.10.2014

10,5 C

Windgeschwindigkeit /
Windrichtung
Anklicken für Monats-Diagramm

---

62,6 km/h / W-SW

17:58
21.10.2014

6,4 km/h
W-SW

Helligkeit /
Sonnenschein
Anklicken für Monats-Diagramm
Anklicken für Monats-Diagramm

Sonnenschein:

85:09 Stunden

Max: 9:10 Std am
04.10.2014

75 klux

13:22
14.10.2014

16,3 klux

Solarstrahlung Anklicken für Monats-Diagramm

---

513 W/m

13:22
14.10.2014

123 W/m

Regenmenge
    Oktober 2014
Anklicken für Monats-Diagramm

Insgesamt 58,2 l/m

in 60:09 Stunden
an 18 Tagen

15,2 l/m

03:47
09.10.2014

Gesamtmenge

58,2 l/m

Regen-Tage
    Oktober 2014
Anklicken für Monats-Diagramm

>   0 mm/Tag

>   2 mm/Tag

>   5 mm/Tag

> 10 mm/Tag

> 20 mm/Tag

18 Tage     
7 Tage     
3 Tage     
3 Tage     
0 Tage     

Eisige Tage Oktober 2014 / 2013

Tmin ≤ -10C     

0 Tage

/

0 Tage

Eistage Oktober 2014 / 2013

Tmax <     0C     

0 Tage

/

0 Tage

Frosttage Oktober 2014 / 2013

Tmin ≤     0C     

0 Tage

/

  1 Tag

Kalte Tage Oktober 2014 / 2013

Tmax <   10C     

2 Tage

/

3 Tage

Warme Tage Oktober 2014 / 2013

Tmax ≥   20C     

6 Tage

/

  1 Tag

Sommertage Oktober 2014 / 2013

Tmax ≥   25C     

0 Tage

/

0 Tage

Heisse Tage Oktober 2014 / 2013

Tmax ≥   30C     

0 Tage

/

0 Tage


Monatsdiagramm Oktober 2014

Die Kurven zeigen den Durchschnittswert des jeweiligen Tages an


Wetter-Monatsübersicht Oktober 2014
Datum
  Temperatur
   Luftdruck
   Wind
  Regen
   Luftfeuchte
   Helligkeit

Sonnen-
schein


Temp.

Min.
Temp.

Max.
Temp.


Luftdruck

Min.
Luftdruck

Max.
Luftdruck

-Geschw.
Haupt-Richtg.

Max.
Wind

Menge /
Dauer


Feuchte

Min.
Feuchte

Max.
Feuchte


Helligkeit

Max.
Helligkeit

1.
Oktober
15,8 C11,2 C
08:19
22,6 C
17:09
1026,9 hPa1024,7 hPa
17:14
1029,0 hPa
23:50
2,8 km/h
NW
17,0 km/h
14:14  
---
80 %58 %
17:14
92 %
10:24
27,8 klux60,0 klux
13:34
6:45 Std 
2.
Oktober
15,2 C10,6 C
08:15
22,7 C
17:25
1028,5 hPa1026,7 hPa
17:25
1030,3 hPa
08:25
1,4 km/h
SO
10,3 km/h
13:20  
---
78 %53 %
17:30
89 %
09:35
28,4 klux58,8 klux
14:30
7:15 Std 
3.
Oktober
14,2 C8,3 C
08:26
22,3 C
17:06
1025,6 hPa1022,6 hPa
17:06
1028,2 hPa
02:36
2,8 km/h
SO
23,2 km/h
14:11  
---
77 %56 %
17:01
89 %
09:11
29,5 klux57,9 klux
14:36
8:00 Std 
4.
Oktober
13,4 C8,4 C
05:22
20,7 C
17:42
1018,7 hPa1014,6 hPa
17:27
1023,1 hPa
01:57
7,3 km/h
SO
28,5 km/h
14:02  
---
75 %53 %
17:07
89 %
09:07
31,0 klux53,9 klux
13:17
9:10 Std 
5.
Oktober
11,0 C7,6 C
06:43
16,4 C
16:13
1016,9 hPa1016,0 hPa
22:58
1018,1 hPa
09:18
2,7 km/h
SO
17,0 km/h
15:53  
---
81 %69 %
15:48
88 %
08:58
21,2 klux58,0 klux
14:18
2:40 Std 
6.
Oktober
12,0 C7,9 C
00:23
16,3 C
14:08
1012,5 hPa1009,4 hPa
21:58
1016,1 hPa
00:23
8,2 km/h
O-SO
27,0 km/h
11:38  
---
83 %73 %
14:43
89 %
06:48
15,0 klux67,7 klux
13:28
1:00 Std 
7.
Oktober
12,9 C10,8 C
01:10
16,1 C
13:55
1005,9 hPa1002,8 hPa
11:30
1009,5 hPa
22:10
16,4 km/h
W-SW
40,5 km/h
11:40  
13,5 l/m
7:20 Stunden
86 %74 %
15:40
90 %
04:55
11,2 klux59,0 klux
14:45
5 Min 
8.
Oktober
13,6 C10,7 C
07:56
17,4 C
23:32
1008,3 hPa1004,6 hPa
23:32
1011,5 hPa
01:51
11,0 km/h
W-SW
28,5 km/h
17:26  
3,5 l/m
3:05 Stunden
87 %84 %
23:32
90 %
00:01
6,5 klux15,9 klux
15:06
--- 
9.
Oktober
16,0 C12,8 C
23:58
18,4 C
01:37
1007,6 hPa1003,4 hPa
01:37
1012,4 hPa
23:58
10,8 km/h
W-SW
36,9 km/h
15:47  
15,2 l/m
11:35 Stunden
88 %77 %
01:32
91 %
17:27
8,7 klux65,3 klux
14:27
10 Min 
10.
Oktober
13,7 C10,4 C
05:13
17,3 C
14:33
1015,0 hPa1012,4 hPa
00:03
1016,4 hPa
10:23
1,9 km/h
W-SW
12,1 km/h
11:03  
0,2 l/m
15 Minuten
88 %78 %
14:53
93 %
07:33
14,9 klux66,9 klux
13:48
45 Min 
11.
Oktober
14,5 C12,6 C
05:44
19,0 C
16:09
1013,8 hPa1012,7 hPa
16:09
1015,4 hPa
00:04
3,1 km/h
W-SW
23,0 km/h
22:30  
2,7 l/m
3:00 Stunden
88 %75 %
16:24
93 %
08:14
17,9 klux62,4 klux
15:09
2:25 Std 
12.
Oktober
12,1 C7,2 C
08:30
15,6 C
16:00
1013,9 hPa1009,2 hPa
21:40
1017,2 hPa
08:30
3,3 km/h
O-SO
21,4 km/h
16:05  
3,6 l/m
3:00 Stunden
87 %78 %
16:00
92 %
10:40
19,7 klux56,4 klux
15:10
3:35 Std 
13.
Oktober
14,5 C11,6 C
23:57
18,0 C
16:45
1007,6 hPa1006,0 hPa
09:20
1009,2 hPa
00:00
4,5 km/h
SO
21,2 km/h
01:20  
3,2 l/m
3:09 Stunden
88 %77 %
16:50
94 %
10:10
12,7 klux43,4 klux
15:25
1:05 Std 
14.
Oktober
13,1 C8,9 C
08:12
18,4 C
15:52
1008,8 hPa1007,6 hPa
15:52
1010,2 hPa
11:37
5,4 km/h
W-SW
27,3 km/h
14:57  
---
86 %72 %
16:37
93 %
09:42
23,7 klux75,0 klux
13:22
5:20 Std 
15.
Oktober
12,1 C8,1 C
08:08
16,1 C
13:48
1008,0 hPa1006,9 hPa
14:33
1009,7 hPa
09:58
3,2 km/h
W-SW
22,6 km/h
13:13  
0,2 l/m
25 Minuten
82 %67 %
13:58
90 %
09:28
21,1 klux58,3 klux
13:13
4:14 Std 
16.
Oktober
13,3 C11,2 C
00:09
15,6 C
15:39
1007,0 hPa1005,8 hPa
15:54
1009,3 hPa
23:40
7,2 km/h
W-SW
32,6 km/h
14:39  
10,3 l/m
5:50 Stunden
88 %83 %
17:49
91 %
04:29
11,7 klux47,1 klux
10:59
45 Min 
17.
Oktober
13,4 C10,2 C
23:40
17,4 C
15:25
1013,9 hPa1008,3 hPa
01:50
1019,9 hPa
23:40
7,1 km/h
W-SW
26,7 km/h
13:50  
0,9 l/m
1:40 Stunden
87 %76 %
15:35
91 %
04:50
15,0 klux60,6 klux
15:20
1:35 Std 
18.
Oktober
12,4 C7,0 C
06:00
21,2 C
16:40
1021,3 hPa1019,7 hPa
16:40
1022,4 hPa
06:00
2,7 km/h
SO
18,4 km/h
13:55  
---
85 %67 %
16:40
93 %
11:15
26,7 klux51,3 klux
13:40
7:05 Std 
19.
Oktober
14,1 C7,8 C
07:51
21,4 C
16:56
1018,8 hPa1015,5 hPa
17:16
1022,0 hPa
01:21
8,1 km/h
W-SW
32,5 km/h
13:41  
---
85 %72 %
15:26
93 %
10:51
23,4 klux47,0 klux
13:51
8:15 Std 
20.
Oktober
14,0 C8,6 C
23:48
17,4 C
00:12
1017,3 hPa1015,7 hPa
20:42
1018,5 hPa
08:42
10,9 km/h
W-SW
31,7 km/h
00:27  
0,6 l/m
31 Minuten
81 %67 %
14:32
91 %
02:02
15,0 klux54,6 klux
14:22
1:35 Std 
21.
Oktober
10,2 C7,6 C
21:23
12,9 C
13:58
1009,1 hPa1000,1 hPa
17:38
1016,0 hPa
00:03
19,1 km/h
W-SW
62,6 km/h
17:58  
0,6 l/m
3:25 Stunden
83 %76 %
14:03
88 %
05:33
8,8 klux48,5 klux
13:43
10 Min 
22.
Oktober
6,8 C4,7 C
01:49
8,4 C
14:34
1015,6 hPa1009,9 hPa
00:04
1021,3 hPa
23:50
26,0 km/h
W-NW
44,5 km/h
01:19  
1,4 l/m
12:09 Stunden
86 %76 %
00:04
91 %
12:29
7,8 klux57,8 klux
14:14
15 Min 
23.
Oktober
8,6 C6,2 C
23:56
12,6 C
16:15
1023,7 hPa1021,3 hPa
00:04
1025,4 hPa
10:35
6,0 km/h
W-NW
16,5 km/h
00:55  
---
25 Minuten
84 %74 %
16:45
88 %
07:10
11,9 klux43,5 klux
15:15
1:45 Std 
24.
Oktober
7,8 C3,5 C
06:01
13,6 C
14:46
1022,3 hPa1019,6 hPa
16:46
1024,8 hPa
02:16
3,6 km/h
W-SW
20,6 km/h
14:51  
0,2 l/m
30 Minuten
82 %65 %
15:16
91 %
10:26
23,0 klux45,9 klux
13:11
5:55 Std 
25.
Oktober
10,2 C7,9 C
03:32
12,4 C
14:57
1020,5 hPa1019,1 hPa
01:07
1023,9 hPa
23:58
1,2 km/h
W-SW
10,1 km/h
14:07  
0,2 l/m
1:10 Stunden
88 %85 %
14:37
91 %
09:27
6,9 klux17,8 klux
14:07
--- 
26.
Oktober
11,3 C7,8 C
23:24
15,3 C
15:08
1025,8 hPa1023,9 hPa
00:03
1027,3 hPa
07:53
1,6 km/h
SO
8,9 km/h
21:53  
0,2 l/m
35 Minuten
86 %73 %
15:18
93 %
09:38
15,1 klux43,4 klux
10:08
2:05 Std 
27.
Oktober
7,4 C4,6 C
23:30
10,3 C
15:44
1026,5 hPa1025,1 hPa
16:04
1027,8 hPa
07:14
4,4 km/h
O-SO
21,1 km/h
19:54  
---
88 %83 %
16:14
92 %
08:39
8,2 klux16,6 klux
13:59
25 Min 
28.
Oktober
6,5 C5,3 C
00:00
7,6 C
14:10
1021,8 hPa1018,4 hPa
23:41
1024,7 hPa
00:00
10,9 km/h
O-SO
20,7 km/h
06:20  
---
83 %78 %
14:25
90 %
00:10
6,8 klux15,8 klux
12:25
--- 
29.
Oktober
8,6 C5,6 C
01:16
12,5 C
14:46
1018,7 hPa1017,2 hPa
06:31
1021,2 hPa
21:21
3,4 km/h
W-SW
14,1 km/h
09:21  
1,8 l/m
2:05 Stunden
81 %70 %
14:46
89 %
23:07
17,5 klux47,7 klux
11:36
2:35 Std 
30.
Oktober
10,8 C9,0 C
00:02
13,2 C
14:27
1024,2 hPa1021,1 hPa
00:02
1026,1 hPa
23:58
0,9 km/h
O-SO
15,8 km/h
11:37  
---
90 %87 %
14:37
92 %
09:07
6,2 klux15,5 klux
11:47
--- 
31.
Oktober
10,8 C7,7 C
07:13
15,6 C
13:53
1025,4 hPa1024,3 hPa
23:59
1026,5 hPa
07:33
1,0 km/h
SO
8,4 km/h
15:03  
---
90 %83 %
15:03
93 %
08:53
12,6 klux36,3 klux
10:43
15 Min 



Oktober
2014

Temperatur

  

Luftdruck

  

Wind

  

Regen

  

Luftfeuchte

  

Helligkeit

Sonnen-
schein

Min

Max

Min

Max

Max

Max

Min

Max

Max

Max

12,0 C

3,5 C

06:01 Uhr
24.10.2014

22,7 C

17:25 Uhr
02.10.2014

1017,1 hPa

1000,1 hPa

17:38 Uhr
21.10.2014

1030,3 hPa

08:25 Uhr
02.10.2014

6,4 km/h

W-SW

62,6 km/h

17:58 Uhr
21.10.2014

15,2 l/m

11:35 Stunden
09.10.2014

85 %

53 %

17:30 Uhr
02.10.2014

94 %

10:10 Uhr
13.10.2014

16,3 klux

75,0 klux

13:22 Uhr
14.10.2014

9:10 Std

am
04.10.2014

Gesamt

Gesamt

58,2 l/m

18 Tage
60:09 h

85:09 Std


Wetter-Diagramme Oktober 2014     Heinzenberg / Taunus   
TemperaturLuftfeuchte
SolarstrahlungLuftdruck
HelligkeitSonnenschein
RegenmengeRegendauer
Wind-GeschwindigkeitWind-Richtung